Find Starlink 30290

NORAD ID: 57858 Int'l Des: 2023-141 Owner: SPXS Country: US Constellation: starlink operational
LEOCIRCULAR

Current View

Loading 3D Globe...

About Starlink 30290

Starlink 30290 (NORAD 57858) is a starlink constellation satellite (v2 mini) launched Sep 12, 2023 by SPXS of US. It operates in LEO, CIRCULAR orbit with a mass of 730.00 kg.

About Starlink 30290

Description loading...

Upcoming Passes

Passes for default location (London). Set your location on the main map for personalized predictions.

Altitude History

Loading altitude history...

Two-Line Element Set

1 57858U 23141U 26170.27326251 .00002955 00000-0 11189-3 0 9992
2 57858 53.1600 172.0825 0000938 97.5963 262.5144 15.30184033155883
Epoch: Jun 19, 2026 • Age: 17 hours

Current Status

Altitude 475.5 km
Velocity 7.63 km/s
Sub-Earth Point 7.97°N, 91.16°W
Launch Date Sep 12, 2023
Age 2.7 years
Type internet

Technical Details

Classification Payload
Mass 730.00 kg
Dry Mass 700.00 kg
Total Mass 730.00 kg
Length 0.30 m
Diameter 4.10 m
Span 29.00 m
Shape Box + pan
Manufacturer SPXS
Bus Type Starlink V2M
Phase Status In Orbit
Owner/State SPXS/US

Most Searched